Domov               UVHVVR             MKGP            O straneh              
ZDRAVSTVENO VARSTVO RASTLIN
  MREŽA AGROMET. POSTAJ
 ► PROGNOSTIČNA OBVESTILA
AGROMETEOROLOŠKI PODATKI -
ARSO
OBVLADOVANJE TVEGANJ ZARADI
NEUGODNIH VREMENSKIH RAZMER
  ► NARAVNE NESREČE
  ► SUŠA/MOČA
  ► NAMAKANJE
  ► ŽLED (gozdarstvo)
KARTOGRAFSKI PRIKAZI
SPLETNE POVEZAVE
PROJEKTI IN PUBLIKACIJE

AGROMETEOROLOŠKA MREŽA: VREMENSKE POSTAJE IN FENOLOŠKA OPAZOVANJA

Pregled podatkov za lokacijo Savci, meteorološka postaja 27393

Pregled senzorjev na lokaciji

ID Ime Zadnja
vrednost
Datum
zadnje
spremembe
Tip
senzorja
942 Omočenost lista (U) 0 U 19.2.2018 06:21 A730WET
1378 Padavine (mm) 0 mm 19.2.2018 06:21 Generic 0.2 mm
944 Relativna vlaga 2 m (% RH) 77,44 % RH 19.2.2018 06:21 Generic 0 - 100 %
943 Temperatura 2 m (°C) -0,9 °C 19.2.2018 06:21 Generic -40 - +60 °C

Pregled podatkov zadnjih 24 ur

Zap.
št.
Datum in čas Savci
Omočenost
lista
Padavine Relativna
vlaga
2
m
Temperatura
2
m
1 19.2.2018 07:00
2 19.2.2018 06:30 0 0 77,4 -0,9
3 19.2.2018 06:00 0 0 77,4 -0,9
4 19.2.2018 05:30 0 0 78,7 -1
5 19.2.2018 05:00 0 0 77,6 -0,9
6 19.2.2018 04:30 0 0 80 -0,8
7 19.2.2018 04:00 0 0 78,2 -0,7
8 19.2.2018 03:30 0 0 78,8 -0,9
9 19.2.2018 03:00 0 0 79,2 -0,7
10 19.2.2018 02:30 0 0 78,4 -0,7
11 19.2.2018 02:00 0 0 79,2 -0,7
12 19.2.2018 01:30 0 0 76,3 -0,3
13 19.2.2018 01:00 0 0 74,2 -0,1
14 19.2.2018 00:30 0 0 77,2 0
15 19.2.2018 00:00 0 0 78 0,3
16 18.2.2018 23:30 0 0 79,8 0,7
17 18.2.2018 23:00 0 0 78,4 0,9
18 18.2.2018 22:30 0 0 77,9 1,1
19 18.2.2018 22:00 0 0 76,9 1,3
20 18.2.2018 21:30 0 0 79 1,4
21 18.2.2018 21:00 0 0 78,4 1,5
22 18.2.2018 20:30 0 0 77,1 1,7
23 18.2.2018 20:00 0 0 74,9 1,9
24 18.2.2018 19:30 0 0 74,8 1,9
25 18.2.2018 19:00 0 0 75,8 2,1
26 18.2.2018 18:30 0 0 73,3 2,3
27 18.2.2018 18:00 0 0 74,8 2,3
28 18.2.2018 17:30 0 0 77 2,5
29 18.2.2018 17:00 0 0 76,4 2,7
30 18.2.2018 16:30 0 0 74,6 2,9
31 18.2.2018 16:00 0 0 74,2 3
32 18.2.2018 15:30 0 0 73,8 3,2
33 18.2.2018 15:00 0 0 74,5 3,3
34 18.2.2018 14:30 0 0 75,9 3,4
35 18.2.2018 14:00 0 0 77,1 3,5
36 18.2.2018 13:30 0 0 78 3,4
37 18.2.2018 13:00 0 0 75,8 3,3
38 18.2.2018 12:30 0 0 82,7 2,7
39 18.2.2018 12:00 0 0 85,7 2,4
40 18.2.2018 11:30 0 0,6 90,3 1,9
41 18.2.2018 11:00 2 0,8 94,4 1,4
42 18.2.2018 10:30 4 1 95,9 0,9
43 18.2.2018 10:00 2 0,8 97,3 0,6
44 18.2.2018 09:30 0 0,4 97,2 0,4
45 18.2.2018 09:00 0 0 99,9 0,2
46 18.2.2018 08:30 1 0 99,9 0
47 18.2.2018 08:00 1 0 99,9 -0,1
48 18.2.2018 07:30 2 0 99,9 0
© 2011 Ministrstvo za kmetijstvo, gozdarstvo in prehrano. Vse pravice pridržane.